Weather Service Report


632 
ASUS41 KAKQ 030015
RWRAKQ

REGIONAL WEATHER ROUNDUP
NATIONAL WEATHER SERVICE WAKEFIELD VA
800 PM EDT THU JUL 02 2015

Note: "fair" indicates few or no clouds below 12,000 feet with no
significant weather and/or obstructions to visibility. * = Denotes
station may not report precipitation (e.g., rain,snow,etc.),
thunder or fog.

VAZ042-051-052>054-056-030100-
NORTHERN VIRGINIA
  
CITY           SKY/WX    TMP DP  RH WIND       PRES   REMARKS
WASH NATIONAL  CLOUDY    75  67  76 S6        29.88S                  
DULLES         CLOUDY    73  63  70 CALM      29.89S                  
FORT BELVOIR   CLOUDY    71  67  87 CALM      29.88S                  
QUANTICO       CLOUDY    74  64  71 N5        29.89S                  
FREDERICKSBRG* CLOUDY    75  66  75 CALM      29.88R                  
STAFFORD*      CLOUDY    70  66  88 CALM      29.93R                  
WARRENTON      CLOUDY    73  67  82 CALM      29.90R                  
CULPEPER*      CLOUDY    71  66  84 CALM      29.91R                  
MANASSAS*      CLEAR     73  64  73 CALM      29.89S                  
LEESBURG*      CLOUDY    72  68  88 NW3       29.91R                  
WINCHESTER     CLOUDY    73  68  83 CALM      29.90R                  
FRONT ROYAL*   FAIR      70  66  88 CALM      29.89R                  
LURAY*         FAIR      73  68  83 CALM      29.92R                  
$$

VAZ048-049-060>072-079>083-030100-
CENTRAL AND SOUTH CENTRAL VIRGINIA
  
CITY           SKY/WX    TMP DP  RH WIND       PRES   REMARKS
RICHMOND       CLOUDY    73  65  75 NE5       29.88S                  
CHESTERFIELD*  NOT AVBL                                               
PETERSBURG*    CLOUDY    74  74  98 NE5       29.90R                  
HANOVER        CLOUDY    72  67  84 CALM      29.90S                  
TAPPAHANNOCK*  CLOUDY    73  63  72 CALM      29.89S                  
QUINTON*       FAIR      72  69  90 CALM      29.88S                  
CHARLOTTSVILLE MOCLDY    73  64  73 E3        29.91R                  
GORDONSVILLE*  FAIR      72  66  83 CALM      29.90R                  
ORANGE*        CLOUDY    73  64  73 CALM      29.92R                  
LOUISA*        CLOUDY    73  64  73 CALM      29.90R                  
BUMPASS*       FAIR      72  68  89 CALM      29.90R                  
FARMVILLE*     CLOUDY    73  66  80 CALM      29.90R                  
CREWE*         FAIR      70  68  93 CALM      29.90R                  
FORT PICKETT*  FAIR      71  68  90 N5        29.90R                  
CHASE CITY*    CLOUDY    75  75 100 CALM      29.90R                  
CLARKSVILLE*   MOCLDY    73  70  88 CALM      29.89S                  
SOUTH HILL*    MOCLDY    73  71  94 N5        29.95R                  
LAWRENCEVILLE* NOT AVBL                                               
EMPORIA*         N/A     72  70  94 CALM      29.89F                  
$$

VAZ088>098-030100-
SOUTHEAST VIRGINIA
  
CITY           SKY/WX    TMP DP  RH WIND       PRES   REMARKS
NORFOLK        LGT RAIN  74  70  87 NW3       29.87R FOG              
VIRGINIA BEACH LGT RAIN  74  71  91 N5        29.87R FOG              
NORFOLK NAVAL  LGT RAIN  73  70  90 CALM      29.88S                  
WEST POINT*    CLOUDY    74  69  82 CALM      29.88F                  
SALUDA*        CLOUDY    72  69  89 N8G17     29.87S                  
NEWPORT NEWS   LGT RAIN  73  72  96 N5        29.87F FOG              
LANGLEY AFB    LGT RAIN  73  72  94 NW2       29.85R FOG              
FORT EUSTIS    CLOUDY    73  73 100 N3        29.85S                  
WILLIAMSBURG*    N/A     73  73 100 CALM      29.88F                  
HR EXEC AP*    MOCLDY    73  70  88 SW5       29.91R                  
FRANKLIN*      CLOUDY    71  70  96 CALM      29.88F                  
WAKEFIELD      CLOUDY    74  71  91 N5        29.88S FOG              
$$

VAZ020-022-025-037-045-030100-
WEST CENTRAL AND SOUTHWEST VIRGINIA
  
CITY           SKY/WX    TMP DP  RH WIND       PRES   REMARKS
STAUNTON*      PTCLDY    72  65  77 CALM      29.95R                  
WAYNESBORO*    FAIR      69  63  81 CALM      29.95R                  
HOT SPRINGS VA MOCLDY    64  62  96 CALM      30.03R                  
LYNCHBURG      MOCLDY    72  66  81 E3        29.94R                  
DANVILLE       CLOUDY    75  69  81 CALM      29.91R                  
SOUTH BOSTON*  MOCLDY    74  71  92 MISG      29.90R                  
MARTINSVILLE   MOCLDY    71  71 100 CALM      29.95S FOG              
ROANOKE        MOCLDY    73  63  70 W3        29.95R                  
BLACKSBURG     MOCLDY    70  65  86 CALM      30.01R                  
DUBLIN*        CLOUDY    71  66  83 CALM      29.99S                  
MARION*        PTCLDY    69  65  86 W6        30.01S                  
HILLSVILLE*    MOCLDY    71  65  82 SW7       29.98S                  
RICHLANDS*     MOCLDY    69  64  83 CALM      29.98F                  
WISE*          CLOUDY    70  63  78 SW5       29.99F                  
ABINGDON*      CLOUDY    73  67  83 W6        29.97S                  
$$

MDZ021>025-VAZ099-100-030100-
SOUTHERN MARYLAND AND THE DELMARVA PENINSULA
  
CITY           SKY/WX    TMP DP  RH WIND       PRES   REMARKS
PATUXENT RIVER CLOUDY    72  64  76 NE5       29.86F                  
BAY BRIDGE APT   N/A     70  63  78 CALM      29.88S                  
LEONARDTOWN    CLOUDY    70  64  83 CALM      29.89S                  
DOVER          CLOUDY    69  69  99 E3        29.84F                  
GEORGETOWN     CLOUDY    70  67  90 CALM      29.87S FOG              
EASTON         PTCLDY    72  72 100 CALM      29.91                   
CAMBRIDGE      CLOUDY    72  68  88 CALM      29.86F                  
SALISBURY      CLOUDY    71  67  87 N7        29.86S FOG              
OCEAN CITY     CLOUDY    70  66  87 N6        29.86R                  
WALLOPS ISLAND CLOUDY    71  70  96 N6        29.87R FOG              
ACCOMACK*      RAIN      73  73 100 N7        29.86S                  
$$

NCZ012>017-030>032-030100-
NORTH CENTRAL AND EASTERN NORTH CAROLINA
  
CITY           SKY/WX    TMP DP  RH WIND       PRES   REMARKS
ROANOKE RAPIDS MOCLDY    73  70  88 NW5       29.87F                  
RALEIGH        CLOUDY    73  71  93 NE5       29.88S                  
ELIZABETH CITY MOCLDY    82  67  60 W6        29.85R                  
AHOSKIE*       CLOUDY    74  69  82 N5        29.88R                  
EDENTON*         N/A     82  71  68 W5        29.86R                  
CURRITUCK*     CLOUDY    83  65  53 NW3       29.86R                  
KILL DEVIL HLS LGT RAIN  74  69  84 SW12G20   29.86R                  
MANTEO         RAIN      74  71  93 W14G22    29.87R                  
CAPE HATTERAS  PTCLDY    80  73  79 SW16G24   29.89S                  
TARBORO*         N/A     76  73  91 W6        29.88R                  
GOLDSBORO      TSTM      77  73  88 W12       29.86R                  
WASHINGTON     CLOUDY    75  73  93 CALM      29.87R                  
GREENVILLE     MOCLDY    77  77 100 CALM      29.88S                  
NEW BERN       PTCLDY    82  73  74 S9        29.88S                  
WILMINGTON     PTCLDY    82  73  74 SW13G24   29.90R                  
$$

VAZ048-030100-
ELSEWHERE
  
CITY           SKY/WX    TMP DP  RH WIND       PRES   REMARKS
HARRISBURG PA  CLOUDY    73  64  73 CALM      29.87S                  
BALTIMORE      CLOUDY    70  65  84 CALM      29.87F                  
ANNAPOLIS      CLOUDY    73  64  73 CALM      29.87S                  
ANDREWS AFB    CLOUDY    70  66  88 CALM      29.88S                  
PHILADELPHIA   LGT RAIN  73  66  78 SE3       29.87F                  
HENDERSON NC   CLOUDY    73  69  89 CALM      29.90R                  
GREENSBORO     CLOUDY    74  68  81 NE7       29.91R                  
ROCKY MOUNT    LGT RAIN  76  72  87 N8        29.88R                  
$$

VAZ100-030100-
MARINE
  
STATION/POSITION TIME  TEMP    WIND        PRES    WAVE   SWELL
                       AIR SEA DIR/SP/G            HT/PER HT/PER
                 (UTC) (F)     (DEG/KT/KT) (MB)    (FT/S) (FT/S)
BRANDYWINE LGT   2300   69 74   20/  8/  9 1011.3F
CAPE MAY NJ      2300   69 77   30/  2/  4 1010.8S
LEWES DE         2300   70 73   40/  5/  6 1011.0F
15NM E FENWICK I 2350   71 73              1010.1R   4/ 7
OCEAN-CITY-INLET 2300   71 72   20/  7/  9 1010.7F
WACHAPREAGUE VA  2300   73 81   CALM  /  2 1010.9R
THOMAS POINT MD  0000   72 76   CALM  /  1 1012.2S
GOOSES REEF MD   0000   73 78   40/  4/  6 1012.4F
COVE POINT MD    2300   72      20/  6/  9 1012.4F
SOLOMONS ISLAND  2300      79                N/A
BISHOPS HEAD MD  2300   73      10/  7/ 10 1011.4R
PINEY POINT MD   2300           40/  5/  7   N/A
CAMBRIDGE MD     2300   72 79   10/  3/  6 1011.5S
LEWISETTA VA     2300   74 80   30/  6/  7 1011.5R
RAPPAHANNOCK LGT 2300          350/ 12/ 13 1011.6R
STINGRAY PT      0000   75 80  360/ 12/ 14 1011.1F   1/ 2
YORK RVR RNG VA  2300   74      20/  9/ 11 1010.6R
YORKTOWN VA      2300   73 80  350/  4/  5 1011.2R
JAMESTOWN VA     0000   72 83  350/  2/  4   N/A
DOMINION TERM VA 2300   75     350/ 13/ 21 1011.3R
KIPTOPEKE VA     2300      84   CALM  /  3   N/A
CHES BAY BRIDGE  2300   74 78  340/ 17/ 21 1010.6R
CAPE HENRY VA    2300   74     320/ 16/ 19 1009.7R
CHESAPEAKE LGHT  2300   75     360/ 15/ 15 1011.3R
WILLOUBY STN VA  2300   74     350/ 17/ 20 1011.9R
CAPE HENRY BUOY  2328      77                N/A     3/ 7
1ST LANDING BUOY 0000      78              1010.8F   2/ 4
CAPE CHARLES BUO 2326      73                N/A     2/ 8   2/ 8
OFFSHORE WE BUOY 2311      78                N/A     4/ 8   3/ 8
64NM E OF VA BCH 2350   79 77  220/ 17/ 21 1009.4F   5/ 5   2/17
DUCK PIER NC     2300   85 62  250/  8/ 13 1009.2S
44100 DUCK FRF   2324      78                N/A     3/ 8
44056 DUCK FRF   2311      71                N/A     2/ 8
OREGON INLET NC  2300   82 83  200/ 22/ 26 1010.6S
HATTERAS NC      2300   80 80  210/ 14/ 19 1011.7R
DIAMOND SHLS NC  2350   83 83  210/ 23/ 29 1011.5F   6/ 6   2/ 9
CAPE LOOKOUT NC  0000   81     220/ 17/ 19 1012.5R
$$

Return to Home page


Western Regional Climate Center, wrcc@dri.edu